Location: Rancho Del Sol Observatory
(38.7214°N, 120.6350°W)
Time: 06:14:37
(UTC-08:00)

S-56A Canister/Altair - All Passes

Search period start: 29 January 2020 00:00
Search period end: 08 February 2020 00:00
Orbit: 634 x 2498 km, 38.9° (Epoch: 28 January)

Date Brightness Start Highest point End Pass type
(mag) Time Alt. Az. Time Alt. Az. Time Alt. Az.
29 Jan - 01:06:07 10° WSW 01:08:55 16° SW 01:11:48 10° S night (unlit)
29 Jan - 16:13:12 10° SSW 16:20:56 22° SSE 16:26:53 10° E daylight
29 Jan - 18:16:23 10° SW 18:25:26 54° SSE 18:31:27 10° E visible
29 Jan - 20:22:18 10° W 20:29:35 90° S 20:34:39 10° E visible
29 Jan - 22:27:54 10° W 22:33:24 71° SSW 22:37:50 10° ESE night (unlit)
30 Jan - 00:33:08 10° W 00:36:26 20° SSW 00:39:41 10° SSE night (unlit)
30 Jan - 15:40:14 10° S 15:47:59 21° SE 15:54:03 10° E daylight
30 Jan - 17:42:57 10° SW 17:52:36 51° SSE 17:59:00 10° E visible
30 Jan - 19:48:56 10° W 19:56:53 87° S 20:02:16 10° E visible
30 Jan - 21:54:52 10° W 22:00:51 78° SSW 22:05:25 10° ESE visible
31 Jan - 00:00:09 10° W 00:03:58 24° SSW 00:07:32 10° SSE night (unlit)
31 Jan - 15:07:23 10° S 15:14:58 19° SE 15:21:04 10° ESE daylight
31 Jan - 17:09:30 10° SW 17:19:42 48° SSE 17:26:32 10° E daylight
31 Jan - 19:15:28 10° WSW 19:24:09 85° S 19:29:53 10° E visible
31 Jan - 21:21:43 10° W 21:28:16 83° S 21:33:01 10° ESE visible
31 Jan - 23:27:10 10° W 23:31:30 29° SSW 23:35:20 10° SSE night (unlit)
01 Feb - 14:34:39 10° S 14:41:54 18° SE 14:47:55 10° ESE daylight
01 Feb - 16:36:03 10° SW 16:46:44 45° SSE 16:54:00 10° E daylight
01 Feb - 18:41:54 10° WSW 18:51:22 82° SSE 18:57:29 10° E visible
01 Feb - 20:48:28 10° W 20:55:38 87° S 21:00:38 10° E visible
01 Feb - 22:54:08 10° W 22:59:02 35° SSW 23:03:07 10° SE night (unlit)
02 Feb - 14:02:07 10° S 14:08:49 16° SE 14:14:33 10° ESE daylight
02 Feb - 16:02:37 10° SW 16:13:43 42° SSE 16:21:25 10° E daylight
02 Feb - 18:08:18 10° WSW 18:18:30 79° SSE 18:25:03 10° E visible
02 Feb - 20:15:07 10° W 20:22:57 90° S 20:28:15 10° E visible
02 Feb - 22:21:02 10° W 22:26:33 42° SSW 22:30:53 10° SE visible
03 Feb - 13:29:53 10° SSE 13:35:41 14° SE 13:40:52 10° ESE daylight
03 Feb - 15:29:13 10° SSW 15:40:39 40° SSE 15:48:46 10° E daylight
03 Feb - 17:34:39 10° WSW 17:45:35 75° SSE 17:52:38 10° E visible
03 Feb - 19:41:39 10° W 19:50:13 89° N 19:55:51 10° E visible
03 Feb - 21:47:52 10° W 21:54:02 50° SSW 21:58:38 10° SE visible
04 Feb - 12:58:08 10° SSE 13:02:34 12° SE 13:06:39 10° ESE daylight
04 Feb - 14:55:51 10° SSW 15:07:31 37° SSE 15:16:02 10° E daylight
04 Feb - 17:00:57 10° WSW 17:12:36 72° SSE 17:20:09 10° E daylight
04 Feb - 19:08:05 10° W 19:17:25 88° N 19:23:28 10° E visible
04 Feb - 21:14:36 10° W 21:21:28 58° SSW 21:26:21 10° SE visible
04 Feb - 23:21:48 10° WSW 23:24:07 13° SW 23:26:15 10° SSW night (unlit)
05 Feb - 12:28:01 10° SE 12:29:25 10° SE 12:30:46 10° SE daylight
05 Feb - 14:22:34 10° SSW 14:34:20 35° SE 14:43:13 10° E daylight
05 Feb - 16:27:15 10° WSW 16:39:32 69° SSE 16:47:37 10° E daylight
05 Feb - 18:34:25 10° W 18:44:33 88° N 18:51:03 10° E visible
05 Feb - 20:41:15 10° W 20:48:51 65° SSW 20:54:03 10° ESE visible
05 Feb - 22:48:05 10° W 22:51:40 17° SW 22:54:47 10° S night (unlit)
06 Feb - 13:49:23 10° SSW 14:01:06 32° SE 14:10:17 10° E daylight
06 Feb - 15:53:33 10° SW 16:06:25 65° SSE 16:15:03 10° E daylight
06 Feb - 18:00:42 10° W 18:11:37 89° N 18:18:36 10° E visible
06 Feb - 20:07:49 10° W 20:16:11 72° SSW 20:21:44 10° ESE visible
06 Feb - 22:14:33 10° W 22:19:13 22° SW 22:23:00 10° S visible
07 Feb - 13:16:18 10° SSW 13:27:52 30° SE 13:37:14 10° E daylight
07 Feb - 15:19:54 10° SW 15:33:13 62° SSE 15:42:25 10° E daylight
07 Feb - 17:26:54 10° W 17:38:37 89° S 17:46:07 10° E daylight
07 Feb - 19:34:17 10° W 19:43:26 78° SSW 19:49:23 10° ESE visible
07 Feb - 21:41:04 10° W 21:46:45 28° SW 21:51:05 10° SSE visible
